Location: *
(34.6780°N, 135.8310°E)
Time: 05:25:15
(UTC+00:00)

Cosmos 407 Rocket - Pass Details

Date: 18 October 2019
Orbit: 744 x 786 km, 74.1° (Epoch: 16 November)

Event Time Altitude Azimuth Distance (km) Brightness Sun altitude
Exits shadow 19:10:12 54° 207° (SSW) 902 3.6 -24.3°
Maximum altitude 19:11:23 83° 287° (WNW) 757 3.3 -24.1°
Drops below altitude 10° 19:16:30 10° 16° (NNE) 2,264 6.2 -23.0°
Sets 19:18:52 0° 17° (NNE) 3,189 7.0 -22.5°
